Theta_e
355 356 356 357 357 358 358 357 357 357 357 357 358 358 359 358 358 357 356 357 356 356 355 355 354 353 352 352 352 351 351 350 350 351 351 352 350 350 350 350 349 349 348 348 348 349 350 350 350 350 351 350 349 347 346 346 345 346 346 346 345 344 344 343 343 343 343 343 343 343 343 343 342 342 341 340 340 340 340 341 344 338 340 342 342
355 356 356 359 356 357 357 356 357 357 357 358 358 358 358 358 358 357 356 356 356 356 355 355 354 353 352 352 351 351 350 350 351 350 350 350 350 350 349 349 349 349 348 348 348 349 349 349 350 350 350 349 346 346 346 345 345 345 345 345 344 344 343 343 343 343 344 343 343 343 342 341 341 340 340 339 339 340 341 342 343 339 338 341 341
357 356 357 358 357 356 356 356 356 357 357 358 358 358 358 357 357 356 356 356 355 355 355 354 353 353 352 352 351 350 350 350 350 350 349 348 348 348 348 348 348 348 348 348 348 348 349 350 350 349 348 348 347 347 347 346 345 345 344 344 343 343 343 343 343 343 343 342 342 341 341 340 340 340 339 338 338 342 341 341 339 340 338 341 342
356 355 357 358 356 356 355 356 356 356 357 357 357 358 357 356 356 356 355 355 354 354 354 353 352 352 352 352 351 350 351 351 349 349 349 348 348 348 348 348 347 347 348 348 348 348 348 349 349 349 348 348 347 347 346 346 346 347 345 344 343 343 343 342 342 342 342 342 342 342 341 340 338 339 339 338 338 339 340 339 339 339 340 340 341
356 354 355 355 357 356 355 356 356 356 356 356 357 357 357 356 355 355 354 354 353 353 353 352 352 352 352 352 351 351 351 350 350 349 349 348 348 348 347 347 347 347 347 348 348 348 347 348 348 347 347 347 347 346 346 346 346 345 344 343 344 343 341 341 341 340 339 342 343 347 344 341 339 338 339 340 340 339 339 339 339 340 341 341 341
355 354 354 353 354 356 355 355 356 356 356 356 356 356 356 356 355 354 354 353 353 353 352 352 352 352 352 352 351 350 349 349 349 349 350 349 350 348 347 347 347 346 346 346 346 345 346 346 346 346 346 346 347 346 348 349 346 344 345 345 344 341 341 343 341 341 341 340 344 344 344 343 340 340 342 342 340 339 339 339 339 340 341 342 341
356 354 355 354 352 355 354 355 356 356 356 356 356 356 356 356 356 354 353 353 353 353 353 352 352 351 351 351 350 349 349 349 349 349 350 350 350 350 347 346 346 346 345 345 345 344 345 346 346 346 346 346 345 347 346 347 348 347 346 345 343 342 342 341 339 340 339 341 344 347 344 343 341 340 342 342 342 340 339 339 338 339 340 340 339
356 356 355 353 353 355 355 356 356 356 356 356 356 356 356 356 356 355 354 354 353 353 352 352 352 351 351 350 349 349 349 349 348 348 350 350 349 350 349 346 346 345 345 344 344 344 344 345 345 345 345 344 344 344 343 344 347 347 345 344 344 343 341 338 338 339 338 340 343 346 345 343 342 340 340 341 342 341 340 340 339 339 341 340 339
353 354 353 354 355 355 355 355 356 355 356 356 356 356 356 356 356 355 354 354 353 353 352 352 351 351 350 349 349 349 349 349 348 349 349 349 349 349 350 347 347 347 347 349 351 351 346 345 345 344 344 345 344 343 343 344 344 345 345 344 343 342 340 338 337 337 339 344 342 343 343 341 342 340 342 341 340 339 339 338 338 339 341 340 339
355 355 355 356 354 354 354 355 355 356 356 356 356 356 356 356 356 355 354 354 353 353 352 352 351 351 350 349 349 349 349 349 350 348 347 347 347 347 347 346 346 345 347 346 346 347 346 344 345 345 345 344 343 344 345 345 344 344 344 343 342 341 340 338 338 338 340 341 341 345 344 352 341 341 340 339 338 338 339 340 342 341 339 337 336
354 356 354 354 355 353 354 355 355 356 356 356 356 356 355 355 355 355 355 354 353 353 353 352 351 350 349 349 350 350 350 350 349 348 348 347 347 347 345 346 345 345 344 344 345 344 344 344 344 344 345 346 345 344 344 344 343 343 343 343 341 340 339 338 341 336 343 341 342 343 341 346 340 339 338 338 337 337 337 338 340 340 339 337 337
352 353 357 354 356 351 353 354 355 356 356 356 356 356 355 355 354 354 355 355 354 354 354 353 353 352 350 351 351 351 351 351 349 348 348 348 347 345 345 345 345 344 344 344 344 343 344 343 344 344 345 346 345 344 343 343 343 343 343 342 341 339 339 338 337 339 342 340 340 342 339 340 338 335 338 337 334 335 336 336 335 336 337 337 336
353 354 353 354 355 351 352 352 354 355 355 355 356 356 355 354 354 354 354 353 353 354 354 354 354 354 353 353 352 352 351 350 349 348 347 347 346 345 345 345 345 344 343 342 342 342 343 345 345 344 345 345 344 343 343 343 343 342 342 341 339 339 340 338 338 339 340 339 338 342 342 342 339 338 337 337 335 335 335 335 334 335 335 336 335
351 354 353 353 354 354 350 350 351 353 354 355 355 354 355 354 354 353 353 352 353 353 353 354 353 354 354 354 353 351 350 350 349 348 347 346 344 345 345 345 345 344 343 342 341 342 343 344 344 344 344 344 342 342 342 342 341 342 342 341 340 338 339 341 341 340 340 339 340 338 342 342 339 339 339 336 335 336 335 335 335 335 335 335 335
349 354 354 351 353 353 353 350 350 352 352 352 354 354 354 354 353 353 353 354 353 353 352 353 353 353 353 353 352 349 348 347 348 349 347 347 345 345 345 345 344 344 343 342 344 344 343 342 343 344 344 343 343 343 343 343 344 343 342 341 340 339 340 339 340 339 338 337 338 337 341 338 339 338 337 337 334 334 334 334 334 334 335 335 335
348 353 355 352 352 352 352 348 347 350 351 351 352 354 354 354 354 354 354 354 353 352 352 352 352 353 353 352 351 349 348 347 347 347 346 345 346 346 345 345 344 344 343 345 344 343 341 342 342 344 344 343 342 342 344 344 344 344 343 342 341 340 341 341 342 338 338 337 338 339 341 340 341 338 339 338 335 334 334 334 334 335 335 335 335
347 349 351 349 353 352 350 350 349 345 346 347 351 352 353 353 352 353 353 354 353 352 353 352 352 352 352 351 351 350 347 347 347 348 346 348 346 345 345 346 346 344 345 344 344 342 341 342 342 343 344 343 342 342 343 344 344 344 343 342 340 340 340 341 340 339 337 337 337 335 340 339 339 340 339 336 334 334 333 334 334 334 335 335 335
347 346 350 349 351 353 350 350 349 350 352 346 350 350 351 349 349 349 350 351 351 353 352 351 351 351 352 351 350 350 349 349 348 349 349 348 347 346 346 345 345 345 345 345 344 342 341 340 341 343 345 343 342 342 343 343 344 343 343 342 340 340 341 341 342 337 338 333 336 336 340 340 340 339 337 335 335 334 333 333 334 334 334 334 334
347 347 349 350 348 349 351 349 348 348 350 351 352 353 348 348 347 350 349 347 348 348 350 350 351 351 350 349 350 349 349 349 349 349 350 350 350 348 346 345 345 346 345 344 343 342 342 342 343 343 344 342 342 342 342 342 343 343 342 342 340 340 341 341 341 336 329 332 338 340 339 338 340 337 337 336 336 334 333 333 333 333 333 334 333
345 347 347 347 350 347 350 349 350 349 349 351 352 355 348 347 347 348 345 349 348 348 347 347 348 346 347 347 347 349 349 349 345 349 348 349 349 343 348 347 346 345 345 343 344 344 343 343 344 344 343 342 342 342 341 341 340 342 342 342 341 341 342 343 336 336 336 336 340 338 340 340 338 337 337 336 335 334 334 332 332 333 333 333 333
343 345 347 347 347 348 346 345 349 349 348 351 351 350 344 344 345 348 347 347 348 347 345 344 344 344 345 343 344 352 348 349 348 349 346 350 348 348 347 348 347 346 345 345 344 343 343 344 344 343 342 342 342 341 341 339 339 340 341 342 342 341 341 339 336 336 337 327 336 338 340 339 338 337 336 336 335 334 333 332 332 332 332 332 332
344 345 346 346 346 344 347 347 347 349 349 349 348 347 346 346 349 350 350 348 347 346 345 346 348 345 338 345 350 350 349 345 345 345 346 345 347 348 348 348 347 347 346 345 344 343 343 343 344 343 343 342 341 337 339 341 340 339 338 342 341 340 342 340 338 335 335 334 338 339 339 339 337 337 336 337 335 335 333 332 332 331 332 331 331
343 344 345 344 346 345 345 343 346 347 348 347 347 345 349 350 351 352 351 349 349 348 347 345 345 345 342 345 350 349 347 349 350 344 343 344 343 346 347 348 348 347 346 342 345 343 344 343 342 342 341 341 336 332 335 335 336 339 339 342 340 338 340 340 339 339 336 338 337 340 339 338 337 337 336 336 335 335 334 333 332 331 331 331 331
341 344 342 345 346 345 344 345 343 343 346 343 344 346 345 348 350 348 348 348 348 346 346 343 342 344 348 348 349 346 343 349 345 345 345 342 342 346 345 347 348 346 347 346 344 344 343 343 342 342 341 336 332 329 330 332 335 334 337 339 337 337 340 341 338 338 338 335 334 340 339 338 338 335 334 335 335 334 335 333 332 331 331 331 331
341 342 343 343 346 346 345 346 347 347 346 347 347 345 347 351 349 351 351 349 348 347 347 348 343 342 341 344 341 344 345 347 345 343 342 342 343 340 343 343 342 340 347 339 338 343 343 340 341 338 336 334 333 335 333 333 336 334 336 337 338 338 339 340 338 336 338 338 337 338 339 339 338 336 334 334 334 334 334 334 332 331 331 331 331
342 341 342 343 345 344 345 344 346 346 348 347 344 346 348 345 347 346 346 345 344 345 345 349 343 343 342 347 341 344 342 345 343 343 343 343 341 342 344 344 344 339 342 337 339 339 336 337 338 336 336 337 336 337 335 334 333 333 333 337 338 339 338 339 339 339 340 339 338 340 340 340 339 338 336 335 334 333 334 334 334 332 331 330 331
338 340 341 340 342 343 343 342 341 346 347 344 346 347 347 344 342 343 341 339 344 340 344 343 343 344 346 344 342 342 342 341 341 341 341 342 341 344 345 344 341 341 340 338 337 337 336 336 338 336 337 337 336 336 335 334 335 331 332 333 336 336 337 338 337 337 339 340 339 340 341 340 340 339 337 336 335 334 334 334 334 333 330 330 330
337 339 338 338 341 339 341 341 342 344 344 342 344 343 344 346 346 346 347 344 344 341 342 343 343 347 344 343 345 343 339 338 339 339 347 342 341 344 344 350 342 342 342 343 338 336 335 335 337 336 335 335 334 335 335 334 334 335 332 333 334 336 337 337 339 338 339 340 339 341 341 341 342 340 340 337 337 334 335 334 334 334 331 329 330
335 335 336 334 334 338 338 337 339 339 341 341 342 343 345 344 346 347 342 347 346 344 344 343 342 343 344 342 345 346 342 341 340 338 342 341 344 341 343 342 342 340 341 341 339 335 335 335 336 335 336 335 334 335 334 334 335 335 333 332 333 333 335 337 338 337 338 339 340 340 341 341 341 342 341 339 338 337 337 335 335 334 333 331 330
334 335 334 334 334 334 333 334 335 335 337 338 339 341 342 345 345 345 345 344 346 344 347 346 344 345 341 344 345 345 344 340 341 342 342 342 341 342 342 340 341 342 340 339 338 336 335 334 335 335 334 335 334 334 334 334 333 335 334 333 331 333 337 335 337 336 337 338 339 340 341 339 340 340 342 342 341 338 338 336 336 335 334 332 332
334 332 333 333 336 331 332 332 333 337 333 331 335 337 339 338 340 345 344 344 343 345 346 345 344 342 343 345 344 343 345 345 344 343 343 343 342 344 345 346 344 342 341 339 340 338 336 336 334 334 334 334 334 333 332 333 334 333 335 333 332 333 334 336 335 336 336 337 338 341 342 341 340 341 341 340 342 340 338 337 337 336 335 333 333
333 332 333 335 333 333 331 334 334 337 337 332 334 333 334 335 336 339 343 343 345 343 344 343 342 345 344 346 346 344 344 346 345 343 338 341 341 341 344 344 343 343 340 339 340 339 337 334 334 335 336 334 333 334 335 333 333 332 333 333 333 334 333 334 334 334 335 337 338 338 341 340 341 341 341 340 340 341 341 339 338 337 336 335 334
332 334 332 333 335 334 331 333 333 337 332 334 332 334 337 334 334 335 342 344 344 344 342 341 344 345 345 346 345 345 344 342 344 342 342 340 342 342 341 341 340 338 338 340 340 340 336 334 333 334 333 334 334 334 333 334 333 334 335 334 334 333 333 333 335 336 335 335 335 336 339 339 340 340 339 341 340 340 342 341 339 338 337 336 335
329 331 334 333 336 335 333 335 335 331 335 333 335 332 334 336 336 336 340 346 343 342 342 343 343 343 344 345 345 343 343 344 341 342 341 340 341 340 341 339 342 343 341 340 343 339 337 335 332 332 332 333 334 333 332 331 330 331 334 335 336 336 334 332 333 334 335 335 334 335 335 336 338 339 339 342 341 339 339 341 341 339 338 337 336
329 331 333 332 337 338 338 337 337 335 332 334 329 333 335 333 334 335 335 338 343 342 341 343 343 343 343 343 342 342 341 343 341 340 337 338 340 342 341 338 343 342 339 340 341 339 337 336 337 332 332 333 332 334 332 337 334 333 335 334 332 333 334 333 333 333 334 335 335 336 336 335 336 337 338 339 341 339 338 339 342 343 340 338 337
331 332 334 335 336 339 338 338 338 338 337 336 337 337 334 334 334 334 336 337 334 338 340 341 341 342 341 340 341 340 341 339 340 341 340 339 339 339 338 342 339 341 338 338 338 336 339 339 339 338 332 331 331 332 334 335 335 334 335 335 335 335 334 334 333 332 333 335 334 335 334 334 336 336 337 338 339 339 338 338 339 340 342 341 339
332 334 334 336 337 336 338 337 338 337 337 335 336 337 334 333 334 334 334 334 332 333 334 336 338 340 339 340 340 341 340 339 339 340 341 341 339 341 337 338 339 336 339 338 339 338 337 337 336 336 334 333 331 331 334 336 335 335 336 335 334 335 334 334 332 332 331 331 332 332 332 334 335 335 339 336 338 340 339 337 339 338 338 340 340
333 334 336 336 335 335 338 338 338 339 335 334 334 332 334 332 329 332 333 330 332 331 332 332 335 338 338 338 337 338 337 337 338 339 342 341 340 334 334 338 338 338 338 341 339 339 337 335 334 333 334 333 331 330 331 333 333 334 336 336 336 336 335 333 333 332 330 330 330 330 331 332 332 334 334 336 335 337 341 339 338 338 337 336 337
334 336 336 336 332 336 338 339 339 337 335 334 335 336 334 333 330 328 327 326 330 331 331 331 332 334 336 337 337 337 336 337 337 338 339 338 339 336 335 339 338 336 338 338 338 336 334 333 333 334 336 333 333 334 333 332 331 331 330 334 338 337 336 336 333 333 331 330 330 330 328 330 332 333 335 335 335 335 339 340 341 340 340 335 337
336 336 335 334 333 335 337 339 338 334 334 334 331 330 328 326 326 328 327 328 330 329 332 330 331 329 333 335 335 334 334 335 336 336 338 338 338 336 335 338 338 335 334 333 336 338 334 333 333 331 332 334 334 335 335 333 332 331 331 332 333 334 336 336 334 333 332 331 331 331 329 330 332 333 332 333 334 334 335 338 339 338 339 338 335
338 337 335 335 336 330 333 337 336 333 330 329 327 326 326 325 326 326 325 324 326 328 326 330 330 330 331 328 328 328 331 332 331 331 332 332 333 337 336 337 337 335 334 332 333 332 333 335 334 333 332 330 328 333 336 336 332 329 333 331 332 331 334 332 334 331 330 332 332 331 333 334 333 333 332 333 332 333 333 334 335 336 337 337 338
335 335 335 334 336 335 336 337 335 330 328 329 327 327 327 325 324 325 324 323 321 323 324 327 328 329 328 327 328 327 329 331 331 331 331 331 331 332 335 335 337 336 334 334 333 331 331 332 331 330 330 328 326 332 335 333 326 324 323 324 330 333 333 328 326 331 331 332 332 331 334 334 332 333 336 333 333 332 331 332 335 334 334 335 338
338 336 335 336 337 336 335 338 333 328 328 331 327 327 328 329 327 323 323 324 327 328 325 326 327 324 328 328 330 330 329 328 328 327 330 329 330 330 331 333 335 336 335 334 333 331 331 331 330 329 326 328 331 334 334 332 326 327 326 322 320 320 326 329 328 328 331 333 332 331 330 328 329 330 332 334 333 333 330 331 332 333 334 335 334
337 336 336 337 337 336 336 337 333 329 329 330 327 330 330 330 328 328 326 324 322 324 326 326 326 325 324 328 328 328 328 329 328 327 328 328 329 329 330 329 331 332 331 332 329 329 334 333 333 332 331 328 328 329 334 334 333 327 318 320 321 320 316 321 324 330 329 328 326 325 325 326 329 332 332 333 332 333 334 333 332 334 337 337 335
336 334 334 335 336 336 336 336 332 329 329 329 329 330 329 329 326 327 326 322 321 321 323 323 324 324 325 326 326 329 328 326 326 326 324 326 327 328 328 329 328 330 330 328 327 327 328 330 331 330 330 328 326 329 332 334 331 335 328 321 318 317 316 322 324 326 331 326 324 324 328 327 327 330 330 330 332 334 334 336 337 336 337 336 336
335 335 337 336 337 336 336 335 330 329 328 329 331 329 325 324 322 318 315 317 317 319 319 320 322 321 320 326 326 327 327 327 326 326 325 325 327 327 327 326 327 329 328 327 326 324 325 326 329 331 331 331 329 326 325 332 333 333 332 332 324 321 321 322 321 315 329 331 327 326 328 328 331 331 329 329 332 333 335 334 336 339 340 339 337
335 337 338 337 337 336 337 335 330 327 330 328 331 326 324 323 322 320 318 319 318 322 323 324 321 321 325 326 326 328 328 327 326 326 325 325 326 326 327 325 324 324 324 325 324 325 323 324 326 326 327 328 329 326 324 325 330 329 330 330 328 328 327 322 316 319 317 325 330 329 328 327 330 330 329 329 332 332 331 333 334 334 339 339 342
335 336 338 337 336 335 336 334 329 327 329 328 330 326 324 323 322 321 320 320 321 321 323 323 324 323 323 325 326 327 326 327 326 325 326 325 325 324 323 323 321 322 321 322 323 324 326 326 326 326 326 326 326 326 325 327 325 325 328 325 327 327 325 322 321 320 319 316 321 330 332 331 329 330 330 330 334 332 334 336 332 333 336 335 337
334 336 337 337 336 336 336 333 329 327 329 328 328 326 326 324 323 321 319 321 322 321 322 322 321 323 323 324 325 324 325 326 325 323 320 319 320 319 320 319 318 317 316 317 321 323 325 325 325 325 325 325 325 325 323 322 322 321 322 324 327 324 324 324 324 324 319 317 318 319 322 330 331 329 328 330 331 332 335 337 336 333 336 339 337
335 336 336 337 334 336 335 332 328 327 329 328 328 326 326 325 323 322 321 320 322 320 321 320 321 322 322 322 322 322 322 323 323 321 320 319 319 319 318 317 317 315 315 315 317 320 322 323 324 325 325 325 325 325 323 322 322 322 321 321 320 320 322 322 321 319 319 322 315 315 318 318 320 329 329 325 325 324 323 326 331 328 327 330 334
334 335 336 335 333 336 334 330 328 327 329 328 328 326 327 325 324 324 322 321 322 321 320 320 320 322 320 321 322 321 321 321 321 322 322 321 320 320 319 318 319 319 317 316 318 316 318 319 320 321 321 321 320 321 320 320 320 318 317 317 316 317 317 315 317 317 316 314 314 314 315 314 312 313 324 329 326 324 324 326 324 322 323 326 328
Wind_Speed
12 16 14 15 14 14 14 14 15 14 13 13 12 12 12 13 13 14 15 15 15 15 15 15 14 13 12 12 11 10 9 8 8 9 9 9 10 9 9 8 8 8 8 8 8 9 9 8 9 10 10 10 11 10 10 9 10 10 10 10 12 13 12 12 12 12 13 13 13 13 12 12 12 12 12 12 10 10 9 6 5 9 10 10 11
15 16 14 14 14 14 14 15 14 14 14 13 12 12 12 13 13 14 15 15 16 15 15 16 15 13 12 12 11 10 8 8 8 9 9 9 10 8 8 7 8 7 7 7 7 8 8 8 9 9 11 11 10 10 9 10 10 11 12 14 14 13 12 11 10 11 11 12 12 12 13 12 12 11 11 10 9 10 11 10 10 9 8 11 11
16 16 14 15 15 14 14 14 14 14 15 13 13 12 13 14 14 14 15 14 14 14 14 15 15 13 12 11 12 10 9 7 8 9 9 9 9 9 8 7 7 7 7 7 7 7 8 9 10 10 10 10 9 9 9 9 10 10 11 12 12 11 10 9 9 10 11 11 12 13 14 13 12 12 10 10 11 15 14 14 9 9 9 11 13
16 15 15 14 14 13 14 13 13 14 14 14 12 12 13 13 13 14 14 14 14 13 13 13 13 13 12 11 11 10 9 7 8 8 9 9 9 9 8 8 6 6 7 7 6 7 8 9 9 10 10 10 9 9 10 9 10 10 10 11 11 10 9 10 10 9 7 11 14 15 8 9 9 11 11 10 10 12 13 13 13 12 10 10 12
14 14 14 13 14 13 13 13 13 14 14 15 14 15 14 13 13 13 13 13 13 13 13 13 13 14 13 12 11 10 8 8 9 9 9 9 8 8 8 7 7 7 6 7 7 7 7 8 8 8 10 10 9 9 9 9 10 11 10 10 11 11 11 10 8 5 4 8 10 9 9 8 8 9 10 11 12 12 12 11 11 11 11 12 13
12 13 13 13 13 13 13 13 13 13 14 14 15 15 16 14 13 13 13 13 13 13 14 14 13 13 13 12 11 10 9 9 9 8 7 8 7 8 7 7 7 6 6 6 6 5 7 7 6 7 8 9 9 10 10 10 11 9 10 11 10 11 11 9 2 2 5 6 11 8 6 7 7 8 10 10 11 11 11 11 10 9 10 12 13
14 12 13 13 12 12 12 13 13 12 12 13 14 14 13 15 14 14 14 14 14 14 14 14 13 13 13 12 11 10 10 9 9 8 7 6 5 6 7 7 7 7 6 6 6 7 7 6 6 6 9 9 9 10 9 9 10 11 11 9 10 11 9 4 0 5 6 8 8 5 5 6 6 7 9 10 10 10 9 9 8 7 9 10 10
9 11 12 13 11 13 12 13 13 12 12 12 12 13 14 15 15 15 15 15 14 14 15 15 14 13 13 12 11 10 9 9 9 8 6 5 6 6 6 7 7 7 6 5 5 6 7 6 6 7 7 7 8 9 9 9 10 10 11 11 11 10 8 3 5 5 10 7 4 3 4 6 8 7 7 9 10 9 8 8 7 8 8 10 9
12 12 12 13 13 15 13 13 12 12 11 12 12 12 14 15 14 14 14 14 14 14 14 14 14 13 12 11 10 9 9 9 9 8 8 7 6 6 7 7 6 6 5 3 5 5 5 5 6 6 8 9 8 8 8 8 9 10 10 10 10 9 5 1 5 8 8 6 3 3 5 6 7 8 9 9 10 10 7 7 9 10 12 11 12
11 12 12 10 13 14 13 12 12 12 11 11 11 11 13 13 13 13 14 15 14 14 13 13 13 13 11 11 10 9 9 9 8 9 8 8 7 7 9 7 6 6 5 7 8 9 9 4 6 9 8 8 8 8 9 10 9 9 9 9 8 7 5 5 8 10 8 3 3 10 8 12 10 9 11 9 7 6 9 15 15 12 10 12 11
11 10 10 12 16 13 13 12 12 12 12 11 11 11 11 12 13 13 14 14 14 13 12 12 12 12 12 11 10 10 10 9 9 9 9 7 6 6 8 7 6 5 7 7 7 7 7 7 8 8 10 11 11 10 8 9 9 7 7 7 6 4 2 7 9 7 3 1 7 3 7 15 11 9 10 9 8 8 11 12 11 10 10 10 10
13 9 10 11 17 13 12 12 12 12 12 11 10 10 10 10 12 12 13 13 13 12 12 11 11 11 12 11 11 10 10 10 10 10 9 8 7 7 7 7 7 6 7 7 7 8 8 8 9 10 11 12 12 11 8 9 8 8 7 6 5 1 5 6 8 6 1 4 8 3 6 11 11 12 10 8 7 8 8 8 7 8 10 10 10
12 12 12 14 14 13 13 11 12 11 11 11 10 9 10 9 10 10 11 12 12 12 12 12 11 10 10 11 10 10 10 10 9 9 9 7 8 8 7 7 6 6 6 7 7 7 9 10 11 11 11 12 13 11 10 8 7 6 6 6 3 2 6 8 7 8 2 5 5 6 13 10 11 14 11 8 6 6 7 7 8 8 9 9 10
13 11 12 14 12 15 13 12 11 11 10 10 9 8 8 8 8 8 9 10 10 11 11 11 10 10 10 9 9 11 11 10 9 9 8 8 7 7 7 7 7 6 5 6 6 7 8 9 10 11 12 12 11 11 10 7 5 4 4 5 3 4 10 9 11 4 3 6 4 3 9 8 10 14 10 8 7 6 7 7 7 9 9 9 10
15 13 13 13 14 13 14 11 10 10 9 7 8 9 8 7 7 8 8 8 9 10 10 10 10 9 9 9 10 11 11 10 8 8 9 8 8 8 8 7 7 7 6 5 8 10 8 7 9 10 11 11 9 8 9 8 4 4 5 4 1 4 9 8 8 3 2 4 4 4 11 10 12 12 8 9 7 6 7 7 7 8 8 9 9
15 14 12 13 12 13 12 11 9 9 9 8 7 8 8 7 7 7 7 8 8 9 9 10 9 9 9 10 10 11 11 10 9 8 8 8 8 9 8 8 7 7 6 9 10 9 6 5 8 10 10 9 9 8 8 8 6 5 6 4 1 4 6 11 9 3 2 1 4 4 12 10 11 10 10 8 7 6 6 6 7 7 8 8 8
14 16 13 14 14 12 12 12 10 7 8 4 8 7 7 7 7 7 7 7 8 9 9 9 10 9 9 10 10 11 11 11 10 9 10 8 10 9 9 8 8 8 8 8 9 8 6 5 8 9 9 9 8 7 7 7 7 7 7 5 1 2 7 10 9 1 2 2 2 1 8 9 10 10 9 7 6 6 5 6 6 7 8 8 8
10 16 13 14 14 12 12 12 11 9 9 5 6 8 8 6 6 7 7 6 6 6 8 8 9 10 9 8 9 10 10 10 10 9 8 9 10 11 10 9 9 9 9 9 9 8 6 7 7 8 8 8 7 7 6 6 6 7 7 4 2 3 7 10 8 2 4 1 2 4 10 11 11 7 7 7 7 5 6 6 6 6 7 7 7
9 11 14 10 13 13 13 11 10 10 10 8 7 9 9 8 6 5 7 9 6 7 8 8 7 9 10 10 9 9 8 8 8 7 7 8 8 10 10 9 9 10 9 10 10 8 9 10 9 8 8 7 7 8 7 6 4 5 6 6 2 4 8 7 7 2 6 4 1 8 8 11 10 6 7 7 7 6 5 5 5 5 6 6 6
7 7 12 9 9 13 12 9 10 10 8 8 8 7 6 9 8 8 6 7 10 9 10 11 8 8 10 10 9 8 6 6 4 5 5 5 7 7 9 10 10 9 9 9 9 9 9 10 9 9 9 9 8 7 7 6 4 5 4 6 5 6 5 5 3 0 3 4 2 9 11 7 7 6 6 6 6 6 5 4 4 5 5 6 6
4 8 8 11 11 9 12 10 11 14 10 9 8 7 6 5 8 8 9 10 8 12 11 11 8 9 9 8 6 6 6 4 4 4 5 6 6 5 8 9 10 9 10 10 9 9 9 10 10 10 10 10 8 7 7 7 5 3 5 7 7 5 4 0 0 0 3 4 3 8 11 9 2 6 5 6 6 6 4 3 4 4 4 5 5
6 6 7 8 11 12 9 9 8 10 10 6 5 6 8 7 8 8 9 9 9 11 12 10 9 6 2 6 6 4 5 7 6 6 4 7 7 8 8 8 7 9 10 10 9 9 10 9 10 10 10 9 10 5 6 6 6 5 5 6 6 6 2 2 2 3 1 3 8 9 10 7 3 5 7 7 6 6 5 4 4 4 4 5 5
8 7 6 7 6 7 11 13 10 10 10 5 3 5 6 6 7 7 5 7 7 8 9 9 7 9 10 8 5 4 4 5 5 6 8 8 7 9 9 8 8 8 10 10 10 10 10 11 11 10 9 9 7 6 6 7 6 7 6 6 6 3 2 1 3 1 3 7 7 12 10 4 3 6 6 6 6 6 5 4 4 4 5 5 4
8 7 6 6 5 5 6 7 11 13 9 9 8 9 7 8 7 8 6 6 7 8 8 10 5 3 5 3 2 4 6 4 6 9 8 7 6 7 8 7 6 7 8 8 10 10 11 11 12 11 8 7 6 7 6 5 7 6 6 6 4 3 3 4 4 2 3 9 9 11 8 5 2 4 4 5 6 6 6 5 5 4 5 4 5
8 7 7 6 6 5 6 6 5 8 10 5 6 9 8 6 6 5 5 6 4 5 5 4 4 6 5 4 2 3 3 3 5 6 6 4 4 6 5 5 6 6 9 5 7 8 9 8 8 8 6 6 6 5 3 2 2 5 4 2 2 2 3 3 2 1 1 9 9 11 9 3 1 2 4 5 4 6 6 6 6 4 3 4 5
7 7 7 7 5 7 6 5 5 6 5 7 6 5 5 4 5 2 3 4 6 4 5 5 6 7 9 5 9 6 5 2 2 3 1 4 4 2 4 2 5 5 4 6 5 6 7 6 6 7 5 4 3 2 2 1 1 2 3 4 3 3 4 3 3 3 1 7 9 12 9 5 2 3 5 5 5 5 6 6 6 5 4 3 4
6 6 6 7 6 6 6 7 5 3 4 5 5 7 5 5 6 8 9 7 5 2 4 5 7 10 7 6 7 7 6 5 3 7 6 8 6 7 6 7 6 2 5 4 4 5 5 6 5 6 5 5 4 4 3 4 4 5 4 3 3 3 3 3 3 3 3 5 8 12 9 6 3 3 4 5 6 5 6 6 6 5 5 3 4
7 8 8 5 6 7 5 5 5 4 3 3 4 3 4 2 4 5 4 5 8 11 5 7 6 4 6 3 5 5 8 5 7 5 3 3 3 3 2 2 4 7 4 2 3 4 3 3 4 3 5 5 6 6 5 4 4 5 4 4 4 3 3 2 2 2 1 4 8 10 11 7 5 3 5 5 6 6 6 6 6 7 5 4 5
8 8 6 8 7 7 6 4 5 4 3 2 2 0 0 3 3 3 6 3 4 4 8 5 1 4 6 8 4 3 5 5 1 1 5 2 3 6 4 4 3 2 3 2 3 3 3 3 4 4 3 4 5 6 6 5 4 4 4 4 4 4 4 3 3 4 4 2 5 9 12 10 7 5 5 4 6 6 6 6 7 7 6 6 5
9 8 7 5 6 7 6 7 4 4 5 3 2 1 1 1 1 2 3 2 3 3 1 4 5 3 3 0 3 2 3 1 2 2 1 3 3 2 2 2 1 4 2 2 3 3 2 2 2 3 4 4 3 4 5 6 6 5 5 5 5 4 3 3 4 4 5 4 3 8 12 11 9 9 6 5 5 7 7 6 7 7 7 7 7
10 9 7 7 6 7 6 6 5 2 2 3 1 3 2 2 2 2 3 2 2 2 2 3 6 6 2 2 4 5 3 1 2 1 1 2 2 1 1 1 1 3 1 3 3 1 1 1 2 3 3 2 3 4 5 5 5 5 5 6 6 5 5 4 5 5 6 5 5 6 9 11 10 8 10 8 6 6 7 7 7 7 8 7 7
10 9 7 7 7 6 7 6 7 3 3 1 2 1 2 2 2 3 2 0 2 2 2 4 4 1 5 3 1 1 3 2 2 1 2 2 2 2 2 2 1 3 5 4 1 1 1 3 4 4 4 3 2 2 3 4 3 4 4 5 5 5 5 5 6 6 5 5 4 6 6 8 10 10 9 8 9 7 7 8 8 7 8 7 7
9 9 9 9 7 6 7 5 8 5 3 3 3 2 2 2 2 2 2 1 1 2 3 0 3 1 1 2 3 4 3 2 3 2 3 3 1 2 3 2 1 3 5 5 3 1 2 2 2 4 5 5 3 3 3 3 3 3 4 4 5 6 5 6 5 5 5 5 4 4 7 8 8 11 11 10 9 9 9 9 9 8 8 9 7
10 9 10 10 7 5 6 4 6 7 2 2 2 1 2 2 2 2 2 1 1 1 2 1 2 2 3 2 2 0 1 3 3 2 3 4 4 5 2 3 4 4 2 2 1 2 2 2 3 4 6 5 5 4 4 4 4 3 3 4 4 4 5 6 5 5 5 6 5 5 5 6 8 8 9 11 11 10 8 9 10 8 9 9 8
10 11 11 11 8 7 5 5 4 6 4 4 3 1 1 2 1 1 2 1 0 1 1 1 2 2 3 4 2 2 2 3 3 6 3 5 4 8 1 3 2 3 2 3 3 3 4 2 2 3 5 4 4 3 2 4 4 4 6 5 4 4 5 6 5 6 6 6 6 5 4 5 4 7 8 8 11 11 10 9 10 8 8 8 9
11 12 11 10 10 8 7 7 5 4 4 4 3 2 3 0 3 1 1 1 3 1 1 1 1 3 1 3 2 3 1 1 2 2 3 3 8 2 5 1 3 3 4 5 5 4 2 1 1 3 2 4 3 3 4 2 2 3 4 4 5 6 5 5 6 6 7 6 7 6 7 6 5 5 6 6 7 10 13 11 11 10 9 9 11
12 12 11 11 10 10 8 8 7 6 5 4 4 3 2 3 2 2 1 3 3 3 1 1 0 1 6 4 4 2 3 2 3 2 2 4 2 0 5 2 4 2 4 6 5 3 3 2 2 2 1 2 5 5 3 2 1 2 2 4 5 5 5 7 6 7 7 7 7 8 6 5 5 5 3 4 5 8 13 15 12 12 10 9 11
11 11 12 10 10 10 8 7 7 6 5 5 4 3 3 3 2 3 3 2 1 1 2 2 2 3 2 6 6 3 2 3 3 1 1 2 1 8 2 1 1 4 4 5 4 4 3 2 2 3 3 4 5 6 5 4 2 2 1 2 2 4 5 5 7 9 7 8 7 6 7 6 6 5 4 5 6 5 8 13 15 13 12 11 11
10 11 11 10 10 9 7 8 7 7 6 6 5 3 4 1 4 1 3 1 1 4 2 2 2 2 4 3 3 3 3 3 0 1 2 1 2 7 1 3 4 2 3 3 5 7 5 3 5 4 2 1 2 0 2 3 3 3 1 0 1 2 3 4 5 7 8 8 7 8 8 7 5 5 5 5 5 6 8 8 9 9 10 14 12
10 10 11 11 10 10 8 7 7 7 6 6 5 5 5 4 4 3 2 2 2 4 2 4 1 3 2 4 3 2 2 2 1 1 1 2 2 5 3 1 2 4 4 3 4 4 7 7 6 4 4 2 4 3 3 3 2 2 2 1 1 1 2 4 6 7 6 7 7 7 6 5 4 5 6 6 6 7 6 8 9 9 10 14 17
11 11 11 10 10 10 9 9 8 7 6 6 5 4 4 4 3 2 3 3 3 2 2 4 5 4 4 4 4 4 3 3 3 1 1 1 1 7 5 3 3 4 4 3 2 4 2 1 2 3 2 2 3 6 3 3 2 2 2 2 1 1 2 3 5 7 7 4 7 7 5 5 6 6 7 5 7 7 6 6 7 8 9 8 14
13 13 12 11 9 9 10 9 8 7 6 4 4 2 3 2 3 4 3 4 5 6 5 5 5 5 4 3 3 3 3 3 4 3 2 2 1 1 2 4 4 4 4 5 6 4 3 3 2 2 5 6 8 5 4 4 3 3 3 1 1 2 2 3 5 5 5 3 5 7 8 6 5 6 6 7 8 8 7 7 7 7 7 6 10
13 14 12 11 9 8 8 9 8 7 6 4 4 4 2 3 1 4 1 5 7 8 7 6 5 5 4 5 4 4 3 3 3 3 1 2 3 2 2 1 1 3 4 4 6 6 5 6 8 6 4 7 4 3 4 5 2 3 3 2 1 0 1 3 5 4 1 2 4 7 8 7 8 8 7 6 8 7 8 8 9 8 7 6 6
11 12 12 12 10 10 9 9 8 8 7 6 4 5 4 5 5 5 5 4 6 5 6 5 6 5 6 5 5 4 5 4 4 3 3 4 3 2 2 3 3 2 3 3 3 3 4 5 5 5 5 5 5 5 5 5 3 5 4 3 3 2 1 2 1 1 4 6 5 5 3 4 5 7 9 8 6 7 7 9 9 5 5 6 6
12 13 14 13 9 12 11 10 9 9 8 7 5 6 6 6 5 6 6 7 6 6 5 6 5 5 5 5 5 4 4 4 4 5 4 3 4 4 3 2 3 2 3 3 2 3 4 3 3 2 3 4 4 4 5 4 5 3 1 3 3 2 2 0 1 2 1 3 3 5 3 6 6 5 5 7 9 8 10 9 8 7 7 7 7
13 12 13 14 13 12 12 11 9 9 9 9 7 7 6 6 6 7 6 6 6 5 6 5 5 5 6 5 6 5 5 5 5 5 5 5 4 3 2 4 3 3 3 3 3 3 0 4 4 1 2 3 3 5 4 1 1 4 4 1 2 1 1 2 2 2 2 2 3 6 5 4 4 5 5 7 6 5 7 11 9 7 8 7 8
14 12 13 14 14 12 12 12 11 10 10 10 9 7 7 7 7 7 6 6 6 5 6 5 6 6 5 6 6 5 5 5 5 5 6 6 5 5 5 4 4 4 4 4 4 4 4 6 2 2 3 2 1 3 5 4 3 4 4 1 1 0 2 1 2 2 3 2 3 2 3 5 4 4 6 6 5 6 7 7 10 10 10 2 5
14 14 13 14 16 15 14 13 11 11 10 10 10 8 8 8 8 7 6 6 6 7 7 6 6 6 6 7 6 5 6 5 5 6 5 6 5 5 4 4 4 4 4 4 4 4 4 5 5 3 1 3 4 3 3 1 1 2 2 2 2 1 0 3 9 5 2 3 2 0 2 3 3 3 5 6 4 2 5 4 4 7 7 7 4
14 15 15 14 14 14 15 13 12 12 11 12 10 10 8 9 8 7 7 5 8 7 7 7 6 6 6 5 6 6 6 6 6 6 6 6 5 5 5 5 5 4 5 5 5 5 6 5 5 5 5 5 5 5 2 3 2 3 2 3 3 2 3 5 7 3 4 4 4 2 3 2 4 3 3 3 4 5 6 6 5 8 8 6 5
14 15 15 15 15 14 15 15 14 12 12 13 12 11 10 9 8 8 8 7 7 7 7 7 7 6 6 6 6 6 6 6 6 6 6 6 5 5 5 5 5 6 6 6 6 6 5 6 6 5 5 5 5 5 6 5 5 4 4 1 0 3 5 4 4 2 2 3 4 4 2 3 5 1 3 4 6 7 8 7 6 8 7 7 6
13 15 14 15 15 15 16 16 15 12 13 13 13 12 10 9 8 8 8 8 8 8 8 7 7 7 7 6 6 6 6 6 6 5 5 6 5 5 5 5 5 5 5 5 5 5 5 5 5 6 6 6 5 5 5 6 5 5 6 5 4 5 4 4 4 3 3 4 4 4 3 4 5 6 4 7 7 7 7 7 8 9 9 7 8
Wind_Direction
128 128 128 123 120 119 118 118 114 112 114 117 119 123 126 130 127 128 128 121 122 125 129 131 128 125 123 119 113 112 112 113 110 107 101 111 119 117 118 119 122 121 116 119 107 107 109 112 104 103 95 91 86 86 91 99 93 81 76 86 81 79 79 79 87 89 88 88 96 97 95 89 88 85 86 83 80 74 61 80 96 73 83 84 83
138 130 130 126 119 122 120 120 116 114 117 119 121 126 128 130 127 126 126 124 128 131 131 131 129 131 129 124 121 120 115 114 110 110 109 111 112 114 113 119 122 126 122 119 112 108 110 107 106 103 97 92 92 90 88 89 87 81 75 74 76 80 83 86 90 94 95 97 99 99 90 87 89 93 86 82 78 59 35 40 51 75 80 86 79
128 128 131 125 120 122 124 119 117 116 120 121 123 124 128 127 124 125 127 128 131 132 129 128 129 129 125 123 125 128 126 123 116 116 117 116 117 120 121 121 124 126 122 118 122 114 114 109 113 105 101 97 98 97 98 96 97 93 94 87 84 86 88 89 97 107 99 98 98 95 94 87 84 83 77 78 77 56 47 48 72 82 69 69 79
125 126 127 120 119 122 124 120 120 121 122 124 123 122 124 128 125 124 127 132 132 128 125 126 125 124 126 128 129 133 135 135 127 123 119 118 121 122 120 115 120 124 126 124 118 127 115 121 113 109 106 102 98 97 93 91 90 86 89 93 94 94 93 85 75 77 119 138 141 142 112 104 93 81 79 74 70 65 57 62 67 71 80 79 77
118 120 127 132 132 127 126 124 124 126 125 124 128 130 127 126 129 127 130 133 130 127 126 124 125 128 133 134 135 140 139 134 126 125 120 116 114 117 118 121 118 124 129 132 127 124 129 114 115 114 106 104 103 100 97 98 98 94 99 99 96 89 82 82 88 122 164 167 189 224 96 93 92 79 87 81 78 75 77 76 68 74 73 66 62
112 124 135 136 136 135 129 128 127 128 128 127 131 135 134 130 131 133 129 127 125 124 126 127 128 131 135 136 138 137 129 125 124 121 113 110 111 116 117 114 113 119 130 134 138 139 118 120 120 114 110 107 107 103 96 93 93 97 96 98 99 93 84 77 98 220 233 205 233 235 110 111 91 95 94 100 94 94 89 82 76 81 90 85 76
125 131 136 138 138 135 130 128 128 128 127 130 132 132 132 131 129 132 133 131 129 130 130 131 132 134 135 136 135 132 131 128 123 115 101 101 102 108 115 113 119 119 126 132 142 133 124 122 112 119 109 111 109 95 92 91 92 88 100 102 96 95 89 91 109 263 249 266 245 215 92 89 94 89 83 88 92 90 88 87 91 104 85 79 71
133 134 141 138 141 133 134 132 132 132 130 130 132 133 134 131 132 133 134 133 133 133 133 132 132 134 134 134 135 133 129 127 120 111 94 85 78 83 99 113 113 120 123 138 143 135 137 138 132 115 118 112 102 100 93 96 93 88 87 93 91 92 88 107 254 262 254 260 244 92 98 93 97 98 92 80 86 87 94 100 93 85 99 111 112
134 132 139 139 134 137 135 132 132 135 130 130 134 135 137 136 136 136 135 134 133 132 132 132 132 135 137 136 133 133 130 123 115 103 82 79 83 74 82 93 98 99 89 64 54 66 109 126 122 112 93 99 104 97 91 90 94 90 86 84 86 87 93 8 271 273 269 250 70 108 79 107 108 102 92 96 89 79 62 120 115 91 72 69 69
128 135 141 141 138 130 131 131 132 132 132 132 133 137 141 140 138 136 136 135 134 134 135 136 136 136 138 134 133 132 126 119 108 98 90 79 78 79 97 97 102 100 86 83 78 81 92 96 104 109 110 107 105 96 84 83 89 91 91 85 85 94 95 258 252 261 268 138 148 38 48 351 95 87 73 60 66 46 70 59 59 62 74 77 76
128 126 139 137 136 128 130 134 134 134 135 135 136 138 141 144 143 140 137 136 137 137 136 137 137 139 139 137 132 130 128 117 111 104 94 86 87 93 106 109 102 100 100 102 97 99 102 100 104 114 112 98 96 91 87 86 87 93 88 89 97 102 181 246 272 268 221 39 63 127 63 77 82 83 75 70 70 78 61 66 84 92 91 87 85
135 141 135 131 127 123 129 134 134 137 138 136 138 143 146 150 148 144 140 138 138 137 133 134 137 136 137 135 135 131 123 114 109 109 103 94 91 104 108 111 115 108 106 112 113 113 115 117 116 111 111 105 101 94 93 92 90 88 96 90 84 96 250 265 280 282 269 95 80 153 91 84 92 92 87 90 86 78 83 100 96 89 89 86 83
131 137 136 135 136 122 117 118 128 133 138 141 143 146 150 150 149 148 144 142 142 139 139 137 136 134 134 136 133 124 111 107 106 107 106 104 99 101 106 115 116 119 119 118 126 122 122 118 120 126 116 110 107 106 104 104 109 109 110 102 90 265 275 268 274 267 86 104 143 215 93 88 89 100 98 102 105 102 98 92 94 95 95 93 91
128 132 138 139 133 124 117 119 122 129 134 140 150 150 149 150 148 147 146 146 145 143 139 136 134 135 136 133 125 111 103 103 112 115 113 113 110 118 115 116 121 118 123 123 125 130 122 127 128 126 119 113 111 109 104 100 95 123 118 120 140 236 267 266 244 276 95 97 307 50 83 100 96 99 115 123 114 111 109 106 97 91 92 97 97
133 136 137 135 136 137 120 110 106 123 123 133 150 151 149 148 150 145 145 145 145 141 140 138 133 134 137 127 115 117 119 114 113 115 120 124 126 125 124 120 123 130 128 127 95 97 121 139 135 124 117 112 107 105 100 89 99 115 134 124 201 266 305 296 298 84 96 69 85 295 99 96 112 117 120 112 112 104 109 108 95 97 100 99 99
130 131 130 134 141 140 139 109 94 126 128 129 128 146 152 149 144 143 146 142 138 139 139 135 134 136 132 125 126 129 133 135 132 133 132 132 128 134 131 127 124 122 126 103 109 114 140 164 140 130 123 117 114 113 115 117 114 118 127 125 230 304 297 303 299 163 47 106 115 277 98 106 120 120 121 122 123 123 113 110 107 101 96 97 98
129 131 137 138 146 146 144 149 137 118 115 86 132 131 144 139 147 143 134 134 142 141 139 135 131 128 127 131 129 133 135 140 144 149 151 140 131 138 137 131 122 124 123 121 121 135 150 168 149 133 125 119 119 120 120 118 115 122 125 151 44 272 292 299 297 145 153 60 49 180 122 115 113 117 121 118 116 117 120 117 119 116 113 100 91
140 133 134 141 141 146 147 154 152 151 144 134 129 125 122 120 121 125 115 116 122 117 121 122 131 126 124 130 130 126 135 142 144 147 140 137 133 139 144 139 124 121 128 132 133 134 163 140 171 135 127 125 127 121 116 115 118 126 134 132 188 321 276 296 288 95 64 7 244 68 77 104 109 120 121 128 130 135 124 124 124 119 112 109 94
129 138 129 142 139 142 147 146 152 154 157 155 160 133 125 134 117 98 122 120 120 121 116 116 117 114 101 109 118 126 133 130 133 139 141 136 131 130 138 140 133 129 130 133 140 148 159 165 152 146 127 113 106 92 86 86 99 124 137 141 140 261 281 288 280 107 90 239 21 80 90 90 106 131 136 135 136 136 137 127 128 124 114 109 103
146 142 136 131 143 140 141 141 147 151 159 174 162 147 133 147 127 105 132 136 150 131 130 132 124 98 98 107 118 129 125 119 95 152 137 135 151 161 134 135 141 140 135 142 147 155 160 160 151 135 123 115 106 107 104 98 107 131 148 156 183 231 264 258 320 357 101 68 318 90 92 98 97 153 135 130 137 143 126 130 130 129 120 108 102
187 150 145 152 133 150 145 151 154 155 154 171 141 147 146 174 143 136 156 141 153 140 122 125 145 140 134 123 133 151 144 136 160 168 151 165 181 142 142 135 139 145 146 151 159 161 164 158 145 135 132 128 126 125 123 127 122 148 156 183 192 225 241 19 68 115 216 110 131 95 88 74 228 138 139 139 133 128 132 143 129 133 121 117 113
161 147 146 153 153 153 152 143 149 152 137 143 143 154 151 177 173 161 162 157 147 138 146 151 168 136 105 161 155 152 173 158 171 173 162 184 182 153 150 153 153 145 146 154 160 163 164 159 146 144 137 141 151 176 159 144 144 151 184 189 207 232 173 208 270 143 357 136 91 105 101 82 163 158 151 135 135 128 148 142 127 125 133 129 121
163 151 153 151 157 154 156 144 164 146 140 127 152 134 175 178 175 173 184 179 182 177 176 177 184 185 177 189 163 160 178 172 153 201 167 186 182 160 162 168 169 157 157 156 159 161 160 156 152 151 153 156 186 230 193 175 173 171 186 202 230 197 169 229 238 132 229 83 100 110 105 113 151 160 151 147 134 145 144 135 140 166 138 139 138
145 151 150 136 141 150 139 146 148 152 158 167 173 167 198 194 177 184 180 195 198 201 196 172 217 218 198 139 185 175 191 170 188 191 152 183 177 178 170 177 165 180 167 162 158 161 159 159 157 156 170 190 200 215 215 175 168 180 187 201 230 132 206 182 229 195 246 101 108 119 105 104 255 149 149 147 156 152 155 148 155 165 151 143 146
147 145 138 143 145 144 138 144 150 146 152 147 158 157 170 156 166 185 166 189 202 219 192 139 151 154 264 190 212 235 202 151 187 192 185 146 170 182 174 195 196 196 178 212 171 172 178 176 165 175 193 199 204 216 233 215 270 172 188 186 180 185 214 216 209 247 174 97 120 131 115 104 282 189 152 151 160 173 149 152 159 161 160 170 164
134 150 147 145 145 149 149 136 162 156 132 176 163 148 158 169 149 174 178 212 213 201 212 141 161 202 210 202 158 187 202 212 243 247 117 103 226 239 194 187 251 180 179 230 193 179 193 179 175 181 192 201 229 235 201 250 207 263 214 186 184 190 229 207 165 173 246 110 133 124 133 129 232 243 171 163 158 178 168 165 156 168 169 221 169
156 142 154 138 176 147 149 151 150 130 168 179 146 169 171 194 164 189 189 209 182 265 206 196 188 191 188 202 156 188 196 161 228 230 186 179 195 228 206 167 178 117 211 222 197 201 208 163 185 179 177 196 201 200 215 202 227 199 228 188 211 224 220 212 161 194 192 129 131 136 140 160 184 229 193 167 165 174 181 170 161 156 181 202 203
160 145 142 168 169 150 153 175 133 141 184 221 146 189 164 193 182 172 238 193 183 173 200 189 169 119 162 214 235 191 177 205 190 212 168 159 166 222 336 150 203 176 149 203 197 204 197 173 161 200 179 188 200 208 207 220 199 270 219 219 190 254 258 228 215 240 160 166 138 147 148 163 168 216 250 187 168 178 185 178 166 158 167 189 209
135 154 157 162 170 138 152 147 120 166 144 262 107 306 295 176 164 214 201 145 215 195 165 112 231 194 189 194 206 216 206 163 173 32 357 35 60 27 14 14 307 331 147 161 246 231 191 193 158 185 188 195 209 209 202 211 193 226 235 225 229 213 214 235 223 216 213 194 155 154 157 167 174 190 227 239 191 179 186 185 168 166 166 180 198
148 146 154 142 135 146 163 132 172 166 137 193 123 141 119 304 180 201 246 165 215 243 104 156 150 187 199 127 145 338 263 70 100 38 55 39 51 75 345 18 36 280 146 192 243 238 231 209 189 170 180 203 221 209 223 209 205 206 226 225 211 247 227 223 226 221 215 195 167 148 164 168 182 179 203 227 243 199 184 191 180 171 182 180 191
144 146 152 151 129 167 143 142 131 29 125 192 140 135 205 198 189 256 219 213 190 239 244 222 160 169 145 154 190 190 231 85 73 84 203 90 71 192 206 220 227 261 230 200 213 218 208 205 174 174 191 190 211 207 210 225 226 215 213 233 229 208 222 215 238 224 219 178 192 151 164 169 183 200 190 198 218 212 206 193 186 177 185 192 180
145 150 153 133 157 159 140 138 111 134 310 78 148 253 229 265 154 193 301 227 61 276 241 214 115 267 166 155 133 189 154 117 119 187 240 204 188 219 210 250 271 11 313 259 165 238 227 239 195 166 147 203 194 278 227 257 235 254 238 226 243 242 226 219 223 230 236 209 201 171 157 178 186 200 212 204 198 205 207 204 192 195 183 193 192
143 154 134 138 158 125 111 117 119 133 163 327 38 11 23 243 222 234 142 233 176 250 241 160 45 70 269 215 178 193 172 163 138 222 261 257 297 201 211 188 163 178 245 246 158 23 233 186 206 178 172 171 158 194 243 241 257 242 260 234 232 237 243 239 222 239 236 231 213 204 174 175 181 196 207 216 216 200 197 202 204 197 194 191 196
148 149 139 145 145 108 116 109 114 139 138 116 63 272 74 357 328 267 115 202 229 246 278 288 190 180 180 154 202 135 88 99 137 53 333 307 262 226 232 228 215 175 217 259 224 190 234 239 183 192 170 169 157 207 203 210 221 236 233 253 251 252 247 244 232 230 242 253 234 229 223 200 184 183 198 207 217 215 204 196 210 203 202 197 190
153 142 149 144 146 123 119 117 129 112 148 119 178 102 161 274 197 311 102 210 67 223 227 241 218 183 211 154 181 66 336 78 88 142 237 247 257 250 222 25 69 130 143 280 213 192 203 185 314 206 156 175 140 170 56 5 11 13 358 332 280 252 239 248 256 248 231 232 252 238 240 246 224 198 199 193 204 217 214 209 203 209 200 206 194
149 146 145 144 141 129 131 126 135 117 119 106 98 68 116 94 34 70 15 211 165 253 328 75 195 205 117 45 44 106 166 271 97 113 232 227 246 271 88 127 75 136 181 200 214 178 161 179 96 22 174 135 145 183 142 151 63 39 4 345 333 327 296 257 243 246 248 239 228 225 218 227 240 232 218 201 202 201 208 215 213 199 200 202 196
146 150 147 144 141 134 140 135 144 140 131 129 124 120 101 123 147 89 172 207 182 175 198 187 204 345 102 47 21 83 237 83 196 161 208 239 227 315 37 106 185 149 199 214 194 180 154 157 19 358 335 215 151 149 143 159 114 83 63 2 349 344 326 323 285 247 246 239 244 247 239 238 233 246 221 246 207 193 194 211 212 210 202 200 198
147 152 146 151 141 138 147 144 143 144 138 139 135 163 147 115 168 125 16 48 19 211 172 150 79 11 104 137 164 303 344 121 351 197 108 278 337 76 227 25 247 200 211 192 206 164 123 135 168 200 203 235 184 173 148 147 161 97 60 34 358 352 335 328 329 306 264 241 235 247 247 234 223 223 222 220 235 200 184 197 208 212 212 203 205
152 153 149 155 144 142 143 146 151 142 146 151 148 129 111 153 77 148 137 178 142 60 350 65 75 59 17 51 39 84 54 19 51 37 239 259 69 113 223 153 159 187 217 217 213 174 142 197 226 159 26 319 307 309 132 170 162 146 102 130 317 344 324 313 304 307 282 263 252 232 230 232 229 231 238 237 235 239 182 188 197 213 213 207 208
158 156 156 155 151 144 149 153 151 151 148 159 166 172 169 169 137 153 140 52 42 61 59 100 145 92 52 36 61 83 53 73 96 50 346 302 112 96 150 219 178 153 196 220 213 216 189 186 195 176 191 260 266 240 172 158 173 180 110 63 320 296 274 295 297 291 298 306 279 262 270 285 265 249 237 235 241 236 224 189 194 206 219 194 205
163 163 160 164 156 156 157 158 155 157 165 171 180 181 162 145 122 116 112 170 105 108 68 45 76 67 45 58 44 50 50 35 14 33 29 252 303 137 160 180 147 134 137 161 192 274 334 32 355 297 236 228 292 243 190 152 166 132 94 195 245 268 304 283 291 296 289 327 303 287 270 259 264 263 268 266 251 249 239 235 227 219 217 213 194
172 168 170 170 165 160 158 155 157 163 168 178 149 147 163 134 164 142 140 147 157 177 123 105 88 86 86 66 71 62 68 52 39 42 19 9 86 52 135 172 170 159 153 157 142 152 196 189 240 257 245 218 223 209 161 159 172 172 153 113 302 201 237 275 269 281 333 346 338 311 287 263 259 256 252 248 256 253 244 232 229 241 237 240 190
171 172 171 172 167 173 164 157 162 161 158 158 156 157 109 73 33 100 99 91 47 36 76 91 100 101 80 82 57 51 56 73 75 37 34 48 56 81 89 128 210 138 155 166 163 171 187 179 202 200 218 239 225 179 173 194 146 158 118 112 231 151 164 237 239 245 252 307 274 263 282 292 298 278 250 239 245 244 247 243 231 223 240 245 257
175 177 164 174 173 175 169 166 162 160 151 157 168 124 106 100 84 92 68 76 95 91 95 94 102 97 84 64 71 58 38 30 32 102 80 52 36 96 111 102 116 141 143 163 161 186 172 178 186 218 228 223 194 182 173 182 198 164 165 182 140 132 253 182 183 152 240 234 250 287 283 308 329 358 328 294 258 263 258 251 250 243 222 241 246
181 181 173 173 173 176 168 170 162 156 153 154 153 129 129 128 115 111 107 106 126 141 141 120 107 102 104 94 80 65 79 81 70 52 66 64 61 46 47 61 79 106 161 158 162 152 168 162 166 197 211 250 194 196 157 187 192 224 257 152 138 182 239 49 104 199 224 290 284 294 340 335 342 343 321 326 333 303 268 246 237 241 234 223 234
180 181 175 172 172 173 166 171 163 153 154 155 152 151 157 149 147 147 146 147 142 155 139 138 140 115 94 95 89 85 71 67 66 62 66 90 95 85 36 77 68 55 26 42 64 71 349 175 118 109 168 175 266 186 159 158 191 206 231 328 10 49 98 34 323 235 155 176 296 304 324 352 342 329 321 316 318 354 328 319 300 262 226 239 234
181 175 175 173 170 169 166 172 163 156 152 159 159 166 164 159 165 161 155 153 144 114 103 105 104 105 102 98 100 97 91 86 82 79 78 71 67 62 52 54 75 67 57 48 48 21 36 27 66 125 107 121 180 214 183 187 189 189 176 216 333 338 314 260 242 274 276 169 178 245 319 318 336 328 315 315 338 336 332 342 322 315 300 281 292
177 172 174 176 173 170 171 168 163 156 155 160 165 173 171 163 175 173 160 160 139 124 128 116 107 107 120 122 118 116 109 96 89 85 81 75 67 67 59 51 58 70 80 75 60 61 52 56 37 16 3 54 71 80 75 57 173 111 115 172 211 254 207 300 279 261 257 291 293 207 218 273 302 311 305 302 317 305 283 284 292 298 310 301 296
179 176 175 174 175 170 166 165 161 157 155 161 169 177 180 166 178 176 172 149 133 144 141 134 127 122 126 124 107 101 94 92 92 93 90 90 81 74 64 57 48 69 86 79 71 63 53 53 60 48 39 40 20 25 55 55 70 78 140 141 166 199 172 199 235 232 257 253 253 268 299 224 223 256 284 287 285 263 247 234 250 257 225 210 242
184 178 177 171 172 168 166 165 162 163 162 166 171 178 182 170 184 179 178 156 150 153 148 137 131 141 128 125 129 124 120 120 113 102 100 95 96 95 86 76 63 55 57 71 82 76 67 65 54 55 52 62 59 40 32 27 23 21 12 36 40 187 172 181 215 219 230 242 284 281 279 312 316 265 221 263 261 263 260 258 234 246 276 268 232
183 180 177 173 170 168 167 169 165 164 164 167 173 176 184 177 185 178 178 165 157 154 145 153 148 149 144 146 144 130 127 122 121 113 99 99 93 85 82 83 77 65 72 75 64 78 89 82 79 71 53 46 49 47 51 31 21 30 4 12 8 19 11 351 356 334 345 314 304 294 299 294 288 292 237 221 248 262 275 279 267 265 264 264 267